Location: ??
(35.4032°N, 139.3073°E)
Time: 15:08:10
(UTC+00:00)

Delta 128 - Pass Details

Date: 13 April 2024
Orbit: 608 x 1210 km, 28.0° (Epoch: 28 May)

Event Time Altitude Azimuth Distance (km) Brightness Sun altitude
Exits shadow 18:49:28 27° 212° (SSW) 1,171 4.5 -16.7°
Maximum altitude 18:50:33 30° 186° (S) 1,084 4.5 -16.5°
Drops below altitude 10° 18:54:34 10° 124° (SE) 1,995 6.6 -15.8°
Sets 18:57:11 0° 114° (ESE) 2,957 7.7 -15.3°
